When you browse on this site, cookies collect data to enhance your experience and personalize the content and advertising you see.
Visit our Privacy Policy to learn more. By continuing to use the site, you agree to this use of cookies and data.

Stündliche Wetter a/p Chisinau International Airport

Heute, 9 August, Sonntag

Zeit Temperatur Niederschläge Wind Luftdruck Luftfeuchtigkeit
00:00 +22°C° 0 mm 4 m/S 758 mmHg 62%
01:00 +22°C° 0 mm 4 m/S 758 mmHg 63%
02:00 +21°C° 0 mm 3 m/S 758 mmHg 67%
03:00 +20°C° 0 mm 3 m/S 758 mmHg 69%
04:00 +20°C° 0 mm 3 m/S 758 mmHg 71%
05:00 +19°C° 0 mm 4 m/S 758 mmHg 73%
06:00 +21°C° 0 mm 4 m/S 758 mmHg 67%
07:00 +23°C° 0 mm 5 m/S 758 mmHg 60%
08:00 +26°C° 0 mm 5 m/S 758 mmHg 54%
09:00 +27°C° 0 mm 5 m/S 758 mmHg 50%
10:00 +28°C° 0 mm 5 m/S 758 mmHg 46%
11:00 +30°C° 0 mm 5 m/S 758 mmHg 42%
12:00 +30°C° 0 mm 5 m/S 758 mmHg 41%
13:00 +30°C° 0 mm 5 m/S 757 mmHg 39%
14:00 +32°C° 0 mm 5 m/S 757 mmHg 38%
15:00 +30°C° 0 mm 5 m/S 757 mmHg 39%
16:00 +30°C° 0 mm 5 m/S 757 mmHg 39%
17:00 +30°C° 0 mm 5 m/S 757 mmHg 40%
18:00 +28°C° 0 mm 4 m/S 757 mmHg 44%
19:00 +27°C° 0 mm 3 m/S 757 mmHg 47%
20:00 +26°C° 0 mm 2 m/S 757 mmHg 51%
21:00 +25°C° 0 mm 2 m/S 757 mmHg 53%
22:00 +24°C° 0 mm 2 m/S 757 mmHg 56%
23:00 +24°C° 0 mm 2 m/S 757 mmHg 58%

Morgen, 10 August, Montag

Zeit Temperatur Niederschläge Wind Luftdruck Luftfeuchtigkeit
00:00 +23°C° 0 mm 2 m/S 757 mmHg 61%
01:00 +21°C° 0 mm 2 m/S 757 mmHg 64%
02:00 +20°C° 0 mm 2 m/S 757 mmHg 67%
03:00 +20°C° 0 mm 2 m/S 757 mmHg 68%
04:00 +21°C° 0 mm 1 m/S 757 mmHg 69%
05:00 +20°C° 0 mm 1 m/S 757 mmHg 70%
06:00 +23°C° 0 mm 2 m/S 757 mmHg 63%
07:00 +25°C° 0 mm 2 m/S 757 mmHg 57%
08:00 +27°C° 0 mm 2 m/S 757 mmHg 50%
09:00 +28°C° 0 mm 2 m/S 757 mmHg 46%
10:00 +29°C° 0 mm 2 m/S 757 mmHg 41%
11:00 +30°C° 0 mm 2 m/S 757 mmHg 37%
12:00 +30°C° 0 mm 2 m/S 757 mmHg 37%
13:00 +30°C° 0 mm 2 m/S 757 mmHg 37%
14:00 +30°C° 0 mm 2 m/S 757 mmHg 37%
15:00 +30°C° 0 mm 2 m/S 757 mmHg 37%
16:00 +30°C° 0 mm 2 m/S 756 mmHg 38%
17:00 +30°C° 0 mm 2 m/S 756 mmHg 38%
18:00 +28°C° 0 mm 2 m/S 756 mmHg 42%
19:00 +27°C° 0 mm 1 m/S 756 mmHg 46%
20:00 +26°C° 0 mm 1 m/S 756 mmHg 49%
21:00 +25°C° 0 mm 1 m/S 757 mmHg 51%
22:00 +24°C° 0 mm 1 m/S 757 mmHg 53%
23:00 +21°C° 0 mm 0 m/S 757 mmHg 55%

übermorgen, 11 August, Dienstag

Zeit Temperatur Niederschläge Wind Luftdruck Luftfeuchtigkeit
00:00 +21°C° 0 mm 0 m/S 757 mmHg 57%
01:00 +20°C° 0 mm 0 m/S 757 mmHg 58%
02:00 +20°C° 0 mm 0 m/S 757 mmHg 60%
03:00 +19°C° 0 mm 0 m/S 757 mmHg 61%
04:00 +19°C° 0 mm 0 m/S 757 mmHg 63%
05:00 +19°C° 0 mm 0 m/S 757 mmHg 64%
06:00 +23°C° 0 mm 1 m/S 757 mmHg 58%
07:00 +25°C° 0 mm 1 m/S 757 mmHg 52%
08:00 +28°C° 0 mm 1 m/S 757 mmHg 45%
09:00 +29°C° 0 mm 1 m/S 757 mmHg 42%
10:00 +30°C° 0 mm 2 m/S 757 mmHg 39%
11:00 +32°C° 0 mm 2 m/S 757 mmHg 35%
12:00 +32°C° 0 mm 2 m/S 757 mmHg 34%
13:00 +32°C° 0 mm 2 m/S 757 mmHg 34%
14:00 +32°C° 0 mm 2 m/S 756 mmHg 33%
15:00 +32°C° 0 mm 2 m/S 756 mmHg 34%
16:00 +32°C° 0 mm 2 m/S 756 mmHg 35%
17:00 +32°C° 0 mm 2 m/S 756 mmHg 35%
18:00 +30°C° 0 mm 2 m/S 756 mmHg 39%
19:00 +29°C° 0 mm 1 m/S 756 mmHg 43%
20:00 +27°C° 0 mm 1 m/S 756 mmHg 47%
21:00 +26°C° 0 mm 1 m/S 756 mmHg 50%
22:00 +25°C° 0 mm 1 m/S 756 mmHg 53%
23:00 +24°C° 0 mm 1 m/S 756 mmHg 56%

12 August, Mittwoch

Zeit Temperatur Niederschläge Wind Luftdruck Luftfeuchtigkeit
00:00 +24°C° 0 mm 1 m/S 756 mmHg 59%
01:00 +23°C° 0 mm 1 m/S 756 mmHg 62%
02:00 +22°C° 0 mm 1 m/S 756 mmHg 65%
03:00 +22°C° 0.1 mm 1 m/S 756 mmHg 69%
04:00 +20°C° 0.1 mm 2 m/S 756 mmHg 73%
05:00 +20°C° 0.1 mm 2 m/S 756 mmHg 76%
06:00 +21°C° 0.1 mm 2 m/S 756 mmHg 71%
07:00 +24°C° 0.1 mm 3 m/S 756 mmHg 66%
08:00 +26°C° 0.1 mm 3 m/S 756 mmHg 61%
09:00 +28°C° 0 mm 3 m/S 756 mmHg 55%
10:00 +29°C° 0 mm 4 m/S 756 mmHg 49%
11:00 +32°C° 0 mm 4 m/S 756 mmHg 42%
12:00 +32°C° 0 mm 4 m/S 756 mmHg 41%
13:00 +33°C° 0 mm 5 m/S 756 mmHg 40%
14:00 +33°C° 0 mm 5 m/S 756 mmHg 39%
15:00 +32°C° 0 mm 5 m/S 756 mmHg 39%
16:00 +32°C° 0 mm 5 m/S 756 mmHg 40%
17:00 +32°C° 0 mm 6 m/S 757 mmHg 40%
18:00 +29°C° 0 mm 5 m/S 757 mmHg 46%
19:00 +27°C° 0 mm 5 m/S 757 mmHg 52%
20:00 +25°C° 0 mm 4 m/S 758 mmHg 57%
21:00 +22°C° 0 mm 4 m/S 758 mmHg 59%
22:00 +21°C° 0 mm 4 m/S 758 mmHg 61%
23:00 +20°C° 0 mm 4 m/S 759 mmHg 63%

13 August, Donnerstag

Zeit Temperatur Niederschläge Wind Luftdruck Luftfeuchtigkeit
00:00 +18°C° 0 mm 4 m/S 759 mmHg 66%
01:00 +17°C° 0 mm 3 m/S 759 mmHg 69%
02:00 +16°C° 0 mm 3 m/S 759 mmHg 72%
03:00 +14°C° 0 mm 3 m/S 759 mmHg 74%
04:00 +13°C° 0 mm 3 m/S 759 mmHg 75%
05:00 +13°C° 0 mm 3 m/S 759 mmHg 76%
06:00 +16°C° 0 mm 3 m/S 760 mmHg 68%
07:00 +18°C° 0 mm 4 m/S 760 mmHg 59%
08:00 +20°C° 0 mm 4 m/S 760 mmHg 50%
09:00 +21°C° 0 mm 4 m/S 760 mmHg 45%
10:00 +23°C° 0 mm 4 m/S 760 mmHg 40%
11:00 +26°C° 0 mm 4 m/S 759 mmHg 35%
12:00 +27°C° 0 mm 4 m/S 759 mmHg 33%
13:00 +28°C° 0 mm 4 m/S 759 mmHg 31%
14:00 +28°C° 0 mm 4 m/S 759 mmHg 28%
15:00 +28°C° 0 mm 4 m/S 758 mmHg 29%
16:00 +28°C° 0 mm 4 m/S 758 mmHg 29%
17:00 +28°C° 0 mm 4 m/S 758 mmHg 29%
18:00 +26°C° 0 mm 3 m/S 758 mmHg 36%
19:00 +24°C° 0 mm 3 m/S 758 mmHg 42%
20:00 +20°C° 0 mm 2 m/S 759 mmHg 49%
21:00 +19°C° 0 mm 2 m/S 759 mmHg 54%
22:00 +18°C° 0 mm 2 m/S 759 mmHg 59%
23:00 +17°C° 0 mm 2 m/S 759 mmHg 64%

14 August, Freitag

Zeit Temperatur Niederschläge Wind Luftdruck Luftfeuchtigkeit
00:00 +18°C° 0 mm 1 m/S 759 mmHg 67%
01:00 +16°C° 0 mm 1 m/S 759 mmHg 70%
02:00 +15°C° 0 mm 1 m/S 759 mmHg 73%
03:00 +15°C° 0 mm 1 m/S 759 mmHg 75%
04:00 +14°C° 0 mm 0 m/S 759 mmHg 77%
05:00 +13°C° 0 mm 0 m/S 758 mmHg 78%
06:00 +18°C° 0 mm 1 m/S 758 mmHg 69%
07:00 +20°C° 0 mm 1 m/S 758 mmHg 60%
08:00 +21°C° 0 mm 2 m/S 758 mmHg 50%
09:00 +24°C° 0 mm 2 m/S 758 mmHg 45%
10:00 +26°C° 0 mm 2 m/S 758 mmHg 41%
11:00 +27°C° 0 mm 1 m/S 758 mmHg 36%
12:00 +28°C° 0 mm 1 m/S 757 mmHg 34%
13:00 +29°C° 0 mm 1 m/S 757 mmHg 33%
14:00 +30°C° 0 mm 1 m/S 757 mmHg 31%
15:00 +30°C° 0 mm 2 m/S 756 mmHg 31%
16:00 +30°C° 0 mm 2 m/S 756 mmHg 32%
17:00 +30°C° 0 mm 2 m/S 756 mmHg 32%
18:00 +28°C° 0 mm 2 m/S 756 mmHg 36%
19:00 +26°C° 0 mm 3 m/S 756 mmHg 41%
20:00 +24°C° 0 mm 3 m/S 756 mmHg 46%
21:00 +21°C° 0 mm 3 m/S 756 mmHg 51%
22:00 +20°C° 0 mm 2 m/S 756 mmHg 56%
23:00 +19°C° 0 mm 2 m/S 757 mmHg 61%
Mehr zeigen